Location: Unspecified
(0.0000°N, 0.0000°E)
Time: 17:14:33
(UTC+00:00)

ATLAS 5 CENTAUR DEB - Pass Details

Date: 11 March 2026
Orbit: 8253 x 35273 km, 19.8° (Epoch: 17 April)

Event Time Altitude Azimuth Distance (km) Brightness Sun altitude
Rises 14:50:05 0° 104° (ESE) 40,999 ? 49.8°
Reaches altitude 10° 17:47:29 10° 94° (E) 35,534 ? 5.6°
Maximum altitude 18:05:54 10° 93° (E) 34,300 ? 1.0°
Drops below altitude 10° 18:22:56 10° 91° (E) 33,058 ? -3.2°
Enters shadow 18:46:36 - 89° (E) 31,185 ? -9.1°
